Regional Weather Roundup
Issued by NWS

Home | Current Version | Previous Version | Text Only | Print | Product List | Glossary Off
Versions: 1 2 3 4 5 6 7 8 9 10 11 12 13 14 15 16 17 18 19 20 21 22 23 24 25 26 27 28 29 30 31 32 33 34 35 36 37 38 39 40 41 42 43 44 45 46 47 48 49 50

976
ASUS45 KCYS 310610
RWRWY

WYOMING REGIONAL WEATHER ROUNDUP
NATIONAL WEATHER SERVICE CHEYENNE WY
1200 AM MDT SUN JUL 31 2016

NOTE:  "FAIR" INDICATES FEW OR NO CLOUDS BELOW 12,000 FEET
WITH NO SIGNIFICANT WEATHER AND/OR OBSTRUCTIONS TO VISIBILITY.

WYZ001-310700-
YELLOWSTONE NATIONAL PARK

CITY           SKY/WX    TMP DP  RH WIND       PRES   REMARKS
LK YELLOWSTONE   N/A     51  42  71 CALM      30.16S
6HR MIN TEMP:  51; 6HR MAX TEMP:  73;

W YELLOWSTONE  NOT AVBL

$$
WYZ002>013-054>058-071-098>099-310700-
NORTHERN WYOMING

CITY           SKY/WX    TMP DP  RH WIND       PRES   REMARKS
JACKSON        FAIR      57  48  72 SW6       30.09S
CODY           FAIR      70  45  40 S6        29.89F
GREYBULL       FAIR      74  44  34 VRB3      29.80R
6HR MIN TEMP:  73; 6HR MAX TEMP:  96; 6HR PCP: TRACE;

WORLAND        FAIR      73  41  31 S5        29.82S
6HR MIN TEMP:  72; 6HR MAX TEMP:  97;

SHERIDAN       FAIR      67  49  52 CALM      29.79S
6HR MIN TEMP:  66; 6HR MAX TEMP:  98; 6HR PCP:  0.02;

BUFFALO        FAIR      69  45  41 SW5       29.89S
6HR MIN TEMP:  69; 6HR MAX TEMP:  94;

GILLETTE       FAIR      64  56  75 E6        29.86R
6HR MIN TEMP:  64; 6HR MAX TEMP:  77;

HULETT         FAIR      73  52  46 CALM      29.86R
NEWCASTLE      FAIR      73  52  46 E22G36    29.87S

$$
WYZ014>020-022>026-101>103-310700-
CENTRAL WYOMING

CITY           SKY/WX    TMP DP  RH WIND       PRES   REMARKS
BIG PINEY      FAIR      55  45  68 MISG      30.15S
6HR MIN TEMP:  54; 6HR MAX TEMP:  79;

PINEDALE       FAIR      59  37  44 NW16      30.18R
DUBOIS         MOCLDY    68  39  34 W26G33    30.12R
LANDER         FAIR      76  41  28 N6        29.97S
6HR MIN TEMP:  75; 6HR MAX TEMP:  89;

RIVERTON       FAIR      73  40  30 W8        29.96S
6HR MIN TEMP:  71; 6HR MAX TEMP:  87;

CASPER         FAIR      68  41  37 SW9       29.92S
6HR MIN TEMP:  67; 6HR MAX TEMP:  94;

DOUGLAS        FAIR      76  39  26 CALM      29.89S
6HR MIN TEMP:  73; 6HR MAX TEMP:  94;


$$
WYZ021-027>030-104>119-310700-
SOUTHERN WYOMING

CITY           SKY/WX    TMP DP  RH WIND       PRES   REMARKS
EVANSTON       FAIR      64  41  42 SW7       30.17S
6HR MIN TEMP:  61; 6HR MAX TEMP:  77;

KEMMERER         N/A    N/A N/A N/A CALM      30.17S
FORT BRIDGER   FAIR      68  41  36 W13       30.18R
ROCK SPRINGS   FAIR      66  42  41 CALM      30.12S
6HR MIN TEMP:  66; 6HR MAX TEMP:  80;

DIXON          FAIR      62  44  50 E7        30.14F
RAWLINS        FAIR      69  38  32 W6        30.10S
6HR MIN TEMP:  69; 6HR MAX TEMP:  84;

SARATOGA       FAIR      61  37  41 S6        30.14R
LARAMIE        FAIR      60  41  49 S12       30.13F
6HR MIN TEMP:  58; 6HR MAX TEMP:  84;

CHEYENNE       FAIR      68  59  73 CALM      30.06F
6HR MIN TEMP:  67; 6HR MAX TEMP:  84;

TORRINGTON     FAIR      72  61  68 E8        29.88S
6HR MIN TEMP:  72; 6HR MAX TEMP:  88; 6HR PCP: TRACE;

PINE BLUFFS    FAIR      72  57  60 MISG      29.97

$$




USA.gov is the U.S. government's official web portal to all federal, state and local government web resources and services.